Weather History for Anchialos, Greece

Change the Weather History Date:

Sunday, March 3, 2013

  Actual Average Record
Temperature  
Mean Temperature 44 °F -  
Max Temperature 50 °F - - ()
Min Temperature 39 °F - - ()
Degree Days  
Heating Degree Days 20    
Moisture  
Dew Point 41 °F    
Average Humidity 78    
Maximum Humidity 87    
Minimum Humidity 66    
Precipitation  
Precipitation 0.00 in - - ()
Sea Level Pressure  
Sea Level Pressure 29.98 in    
Wind  
Wind Speed 6 mph ()    
Max Wind Speed 15 mph    
Max Gust Speed -    
Visibility 5.2 miles    
Events Rain    
T = Trace of Precipitation, MM = Missing Value Source: Averaged Metar Reports

Daily Weather History Graph

Daily Weather History Graph

Search for Another Location

Airport:

Trip Planner

Search our weather history database for the weather conditions in past years. The results will help you decide how hot, cold, wet, or windy it might be!

Date:

Astronomy

Mar. 03, 2013 Rise Set
Actual Time 6:58 AM EET 6:23 PM EET
Civil Twilight 6:31 AM EET 6:50 PM EET
Nautical Twilight 6:00 AM EET 7:21 PM EET
Astronomical Twilight 5:29 AM EET 7:52 PM EET
Moon No Moon Rise 10:00 AM EET (3/3)
Length of Visible Light 12h 18m
Length of Day
11h 24m
Waning Gibbous, 67% of the Moon is Illuminated
Mar 3
Waning Gibbous
Mar 4
Last Quarter
Mar 11
New
Mar 19
First Quarter
Mar 27
Full

Hourly Weather History & Observations

Time (EET) Temp. Windchill Dew Point Humidity Pressure Visibility Wind Dir Wind Speed Gust Speed Precip Events Conditions
12:50 AM 48.2 °F - 44.6 °F 87% 29.95 in 6.2 mi West 4.6 mph - N/A Rain Light Rain
1:50 AM 48.2 °F - 44.6 °F 87% 29.95 in 6.2 mi WNW 6.9 mph - N/A Rain Light Rain
3:50 AM 48.2 °F - 41.0 °F 76% 29.92 in 6.2 mi NNE 10.4 mph - N/A Rain Light Rain
4:50 AM 48.2 °F - 41.0 °F 76% 29.92 in 6.2 mi North 15.0 mph - N/A   Light Drizzle
5:20 AM 48.2 °F - 41.0 °F 76% 29.92 in 6.2 mi North 15.0 mph - N/A   Overcast
5:50 AM 48.2 °F - 41.0 °F 76% 29.95 in 6.2 mi North 11.5 mph - N/A   Overcast
6:50 AM 48.2 °F - 41.0 °F 76% 29.95 in 6.2 mi NNE 5.8 mph - N/A Rain Light Rain
7:20 AM 46.4 °F 43.5 °F 42.8 °F 87% 29.98 in 4.3 mi South 5.8 mph - N/A Rain Light Rain
7:50 AM 46.4 °F 44.3 °F 41.0 °F 81% 29.98 in 3.7 mi WNW 4.6 mph - N/A Rain Light Rain
8:20 AM 48.2 °F - 41.0 °F 76% 29.98 in 3.7 mi NNE 4.6 mph - N/A Rain Light Rain
8:50 AM 46.4 °F - 41.0 °F 81% 29.98 in 3.7 mi Calm Calm - N/A Rain Light Rain
9:20 AM 46.4 °F - 41.0 °F 81% 30.01 in 3.7 mi Calm Calm - N/A Rain Light Rain
9:50 AM 48.2 °F - 41.0 °F 76% 30.01 in 3.7 mi NW 4.6 mph - N/A Rain Light Rain
10:20 AM 46.4 °F 44.3 °F 41.0 °F 81% 30.01 in 3.7 mi WNW 4.6 mph - N/A Rain Light Rain
10:50 AM 46.4 °F 43.5 °F 41.0 °F 81% 30.01 in 2.5 mi West 5.8 mph - N/A Rain Light Rain
11:20 AM 46.4 °F 44.3 °F 42.8 °F 87% 30.01 in 1.9 mi West 4.6 mph - N/A Rain Light Rain
11:50 AM 46.4 °F 41.9 °F 42.8 °F 87% 30.01 in 2.5 mi WSW 9.2 mph - N/A Rain Light Rain
12:20 PM 48.2 °F - 42.8 °F 82% 30.01 in 4.3 mi West 6.9 mph - N/A Rain Light Rain
12:50 PM 48.2 °F - 41.0 °F 76% 29.98 in 5.0 mi NW 4.6 mph - N/A   Overcast
1:20 PM 48.2 °F - 41.0 °F 76% 29.98 in 5.0 mi NW 9.2 mph - N/A   Overcast
1:50 PM 50.0 °F - 39.2 °F 66% 29.98 in 5.0 mi NNW 4.6 mph - N/A   Overcast
2:20 PM 48.2 °F - 41.0 °F 76% 29.98 in 5.6 mi NW 6.9 mph - N/A   Overcast
2:50 PM 50.0 °F - 41.0 °F 71% 29.98 in 5.6 mi NNW 8.1 mph - N/A   Mostly Cloudy
3:20 PM 50.0 °F - 41.0 °F 71% 29.98 in 5.6 mi North 6.9 mph - N/A   Mostly Cloudy
3:50 PM 50.0 °F - 39.2 °F 66% 29.98 in 5.6 mi NNW 10.4 mph - N/A   Mostly Cloudy
4:20 PM 50.0 °F - 39.2 °F 66% 29.98 in 6.2 mi NW 9.2 mph - N/A   Mostly Cloudy
4:50 PM 50.0 °F - 39.2 °F 66% 29.98 in 6.2 mi WNW 5.8 mph - N/A   Mostly Cloudy
5:20 PM 50.0 °F - 39.2 °F 66% 29.98 in 6.2 mi WNW 5.8 mph - N/A   Scattered Clouds
5:50 PM 50.0 °F - 41.0 °F 71% 29.98 in 6.2 mi WNW 5.8 mph - N/A   Scattered Clouds
6:20 PM 46.4 °F 42.4 °F 41.0 °F 81% 29.98 in 6.2 mi WSW 8.1 mph - N/A   Partly Cloudy
6:50 PM 46.4 °F 42.9 °F 41.0 °F 81% 29.98 in 6.2 mi West 6.9 mph - N/A   Partly Cloudy
7:20 PM 44.6 °F 40.2 °F 39.2 °F 81% 29.98 in 6.2 mi West 8.1 mph - N/A   Partly Cloudy
7:50 PM 42.8 °F 38.0 °F 39.2 °F 87% 29.98 in 6.2 mi West 8.1 mph - N/A   Partly Cloudy
8:50 PM 41.0 °F 38.0 °F 37.4 °F 87% 30.01 in 6.2 mi SW 4.6 mph - N/A   Partly Cloudy
9:50 PM 39.2 °F 34.2 °F 35.6 °F 87% 30.01 in 6.2 mi WNW 6.9 mph - N/A   Partly Cloudy
10:50 PM 41.0 °F 36.4 °F 37.4 °F 87% 30.01 in 6.2 mi WNW 6.9 mph - N/A   Partly Cloudy
11:50 PM 39.2 °F 35.0 °F 35.6 °F 87% 30.01 in 6.2 mi West 5.8 mph - N/A   Partly Cloudy